Location: Freistadt
(48.5112°N, 14.5013°E)
Time: 17:22:34
(UTC+02:00)

CUBEBUG 2 - Pass Details

Date: 09 April 2023
Orbit: 577 x 685 km, 97.8° (Epoch: 02 June)

Event Time Altitude Azimuth Distance (km) Brightness Sun altitude
Rises 03:17:47 0° 17° (NNE) 3,047 ? -26.8°
Reaches altitude 10° 03:20:07 10° 22° (NNE) 2,116 ? -26.6°
Maximum altitude 03:24:38 52° 99° (E) 821 ? -26.1°
Enters shadow 03:24:55 51° 113° (ESE) 828 ? -26.1°
